[[{"header":{"parameterUnit":"m.s-1","parameterCategory":1,"la1":30.2991,"la2":30.254,"lo1":-89.0895,"lo2":-89.0444,"dy":0.0017,"dx":0.0017,"nx":28,"ny":28,"refTime":"2025-05-15T03:00:00:Z","depth":0,"parameterNumber":2,"parameterNumberName":"U-component_of_WINDS"},"data":[0,0,0,0,0,0,0,0,0,0,0,0,0,0,0,0,0,0,0,0,0,0,0,0,0,0,0,0,0,0,0,0,0,0,0,0,0,0,0,0,0,0,0,0,0,0,0,0,0,0,0,0,0,0,0,0,0,0,2.0949,2.095,0,2.1034,2.1035,2.1035,2.1025,2.1024,2.1022,2.1021,2.1107,2.111,2.1114,0,0,0,0,0,0,0,0,0,0,0,0,0,2.0776,2.0779,2.0949,2.095,2.0951,2.1033,2.1035,2.1036,2.1025,2.1024,2.1022,2.1021,2.1106,2.111,2.1114,0,0,0,0,0,0,0,0,0,0,0,0,0,2.0855,2.078,2.0949,2.0956,2.0957,2.1033,2.1035,2.1036,2.1026,2.1024,2.1022,2.102,2.1104,2.1109,2.1115,2.1189,0,0,2.1131,2.1133,0,0,0,0,0,0,0,0,2.085,2.0861,2.0954,2.0955,2.0957,2.1017,2.1005,2.1087,2.1026,2.1,2.1021,2.1019,2.1078,2.1086,2.1106,2.1193,2.1196,2.1131,2.1135,2.1137,2.1138,0,0,0,0,0,0,0,2.0845,2.0857,2.0982,2.0955,2.0957,2.0954,2.0963,2.102,2.105,2.1002,2.1001,2.1012,2.1079,2.1101,2.1108,2.1198,2.1131,2.1136,2.1139,2.1141,2.1345,2.1348,0,0,0,0,0,0,2.0838,2.0853,2.098,2.0985,2.0898,2.0959,2.0969,2.1,2.1049,2.1054,2.1013,2.1011,2.1093,2.1102,2.1111,2.1198,2.1137,2.1142,2.1145,2.1343,2.1346,2.1348,0,0,0,0,0,0,2.0834,2.0849,2.0976,2.0919,2.0935,2.0964,2.0999,2.1002,2.1024,2.1057,2.1062,2.1031,2.1092,2.1103,2.1169,2.1201,2.1144,2.1149,2.1341,2.1344,2.1347,2.1375,0,0,0,0,0,0,2.0829,2.0848,2.0877,2.0919,2.0938,2.1034,2.1001,2.1006,2.1034,2.1031,2.1075,2.108,2.1091,2.1161,2.1174,2.1208,2.1153,2.1338,2.1342,2.1346,2.1372,2.1379,2.1386,0,0,0,0,0,2.0823,2.0882,2.0879,2.0894,2.0975,2.1035,2.1046,2.1057,2.1037,2.1065,2.1086,2.1079,2.1196,2.1168,2.1182,2.1218,2.1336,2.1341,2.1346,2.1369,2.1378,2.1386,0,0,0,0,0,0,2.0843,2.0888,2.0885,2.0959,2.0994,2.1034,2.1071,2.1067,2.1108,2.1104,2.1116,2.1126,2.1191,2.1211,2.1179,2.1291,2.1263,2.1271,2.1275,2.1284,2.1291,2.1284,2.1158,0,0,0,0,0,2.0856,2.0902,2.0939,2.1001,2.1018,2.1041,2.1068,2.1074,2.111,2.1124,2.115,2.1185,2.1229,2.1258,2.1301,2.1375,2.1383,2.1406,2.1413,2.1419,2.1426,2.1464,2.1474,2.1365,2.1365,2.1365,0,0,2.0884,2.0914,2.0942,2.1006,2.1033,2.1079,2.1054,2.1105,2.1138,2.1132,2.1194,2.1214,2.1254,2.1323,2.1355,2.1342,2.1457,2.1425,2.143,2.1433,2.147,2.148,2.1489,2.1368,2.1368,2.1367,0,0,2.0957,2.0986,2.104,2.1067,2.1108,2.1123,2.1136,2.1176,2.1189,2.1252,2.1247,2.1287,2.1364,2.1391,2.1415,2.1496,2.149,2.151,2.1547,2.1583,2.1592,2.16,2.1626,2.1636,2.1517,2.1517,2.1517,0,2.0986,2.1056,2.1068,2.1118,2.1145,2.1141,2.1194,2.1221,2.1274,2.1292,2.1277,2.1371,2.1397,2.1471,2.1491,2.1511,2.1525,2.1505,2.159,2.1598,2.1605,2.1631,2.1641,2.1519,2.1518,2.1518,2.1518,0,2.1089,2.1137,2.1175,2.1226,2.1258,2.131,2.1327,2.1358,2.136,2.1376,2.1438,2.147,2.1517,2.1535,2.1539,2.161,2.16,2.1587,2.1559,2.1617,2.1641,2.1651,2.1521,2.1521,2.152,2.152,0,0,2.1178,2.1233,2.1246,2.1268,2.1313,2.135,2.14,2.1447,2.1472,2.1508,2.1549,2.1613,2.1601,2.1628,2.1634,2.1667,2.1726,2.165,2.1651,2.1661,2.1803,2.1811,2.1822,2.1722,2.1724,2.1726,2.1799,0,2.1254,2.1344,2.1355,2.1434,2.1478,2.1473,2.1517,2.1548,2.1564,2.1602,2.1619,2.1663,2.1645,2.1661,2.1693,2.1712,2.1754,2.1707,2.1759,2.1761,2.1748,2.1835,2.1845,2.1912,2.1809,2.181,2.1812,0,2.1355,2.1394,2.1477,2.1513,2.1532,2.1571,2.1613,2.1651,2.1685,2.1694,2.1723,2.1724,2.1775,2.1745,2.1814,2.1781,2.1803,2.1815,2.1818,2.1823,2.1789,2.184,2.1934,2.1944,2.1827,2.1826,2.1825,0,2.1409,2.1482,2.1541,2.156,2.1604,2.1631,2.1651,2.1683,2.1709,2.1746,2.1763,2.1805,2.1828,2.186,2.1871,2.1849,2.1938,2.1911,2.1946,2.1945,2.1964,2.1962,2.2061,2.1981,2.1981,2.198,2.198,0,2.1492,2.1543,2.1565,2.1601,2.1657,2.1668,2.1723,2.1741,2.177,2.1808,2.1807,2.1843,2.1857,2.1895,2.1905,2.1958,2.1969,2.1976,2.1978,2.1976,2.1974,2.1989,2.1984,2.1983,2.1983,2.1982,2.1982,0,2.1562,2.1579,2.1642,2.1678,2.1689,2.1728,2.1758,2.1792,2.1807,2.1855,2.1867,2.189,2.1933,2.1949,2.2002,2.2008,2.207,2.2069,2.2059,2.2059,2.2092,2.2088,2.2202,2.2217,2.2129,2.213,2.213,0,2.1613,2.1652,2.1692,2.1717,2.1738,2.1779,2.1806,2.1818,2.1845,2.1886,2.1914,2.1958,2.1993,2.2064,2.2084,2.2124,2.2123,2.216,2.2129,2.2124,2.2121,2.2118,2.2121,2.2165,2.2166,2.2167,2.2168,0,2.1702,2.1708,2.1746,2.1788,2.1819,2.1852,2.1884,2.1905,2.1921,2.1952,2.1996,2.2024,2.2078,2.212,2.2161,2.218,2.2176,2.2177,2.2187,2.2185,2.2176,2.2179,2.2073,2.2175,2.2174,2.2173,2.2173,2.2173,2.1762,2.1796,2.1828,2.1871,2.1896,2.1925,2.1958,2.1976,2.2014,2.2059,2.2063,2.2111,2.2141,2.2196,2.2216,2.2253,2.2242,2.2257,2.226,2.2263,2.2265,2.2171,2.226,2.226,2.226,2.226,2.226,0,2.1849,2.1869,2.1908,2.1952,2.1985,2.1979,2.2013,2.2041,2.2083,2.2112,2.2147,2.2197,2.2238,2.2261,2.2301,2.2325,2.2324,2.2335,2.2333,2.2337,2.2273,2.226,2.2335,2.2335,2.2335,2.2335,2.2335,2.2335,2.1898,2.1953,2.1963,2.203,2.2049,2.2096,2.2116,2.2142,2.2165,2.2221,2.2255,2.227,2.2296,2.2338,2.2374,2.238,2.2394,2.2405,2.241,2.235,2.2342,2.2334,2.2322,2.2409,2.2409,2.247,2.2471,2.2471]},{"header":{"parameterUnit":"m.s-1","parameterCategory":1,"la1":30.2991,"la2":30.254,"lo1":-89.0895,"lo2":-89.0444,"dy":0.0017,"dx":0.0017,"nx":28,"ny":28,"refTime":"2025-05-15T03:00:00:Z","depth":0,"parameterNumber":3,"parameterNumberName":"V-component_of_WINDS"},"data":[0,0,0,0,0,0,0,0,0,0,0,0,0,0,0,0,0,0,0,0,0,0,0,0,0,0,0,0,0,0,0,0,0,0,0,0,0,0,0,0,0,0,0,0,0,0,0,0,0,0,0,0,0,0,0,0,0,0,5.4424,5.4425,0,5.4508,5.4509,5.451,5.4473,5.4471,5.4469,5.4467,5.4547,5.4551,5.4555,0,0,0,0,0,0,0,0,0,0,0,0,0,5.4226,5.423,5.4424,5.4425,5.4426,5.4508,5.4509,5.451,5.4474,5.4471,5.4469,5.4466,5.4546,5.455,5.4555,0,0,0,0,0,0,0,0,0,0,0,0,0,5.4311,5.4231,5.4424,5.4418,5.4419,5.4508,5.4509,5.451,5.4474,5.4471,5.4468,5.4465,5.4544,5.455,5.4556,5.4654,0,0,5.4574,5.4577,0,0,0,0,0,0,0,0,5.4306,5.4318,5.4418,5.4419,5.4419,5.4477,5.4468,5.4558,5.4475,5.4453,5.4467,5.4464,5.4526,5.4533,5.4555,5.4657,5.4661,5.4575,5.4578,5.4581,5.4582,0,0,0,0,0,0,0,5.43,5.4314,5.4457,5.4419,5.442,5.4409,5.4418,5.4485,5.4505,5.4455,5.4452,5.4463,5.4525,5.455,5.4557,5.4662,5.4574,5.458,5.4583,5.4586,5.4846,5.4849,0,0,0,0,0,0,5.4295,5.431,5.4455,5.446,5.4354,5.4415,5.4425,5.4462,5.4504,5.4508,5.4465,5.4461,5.4541,5.455,5.4559,5.4676,5.4581,5.4586,5.459,5.4843,5.4847,5.485,0,0,0,0,0,0,5.4291,5.4309,5.4451,5.4384,5.4401,5.4422,5.4463,5.4465,5.4489,5.4513,5.4515,5.4487,5.4539,5.4551,5.463,5.4678,5.4589,5.4595,5.4839,5.4844,5.4849,5.491,0,0,0,0,0,0,5.4286,5.4307,5.4347,5.4385,5.4405,5.4523,5.4466,5.4469,5.45,5.4495,5.4533,5.4537,5.4537,5.4622,5.4636,5.4685,5.4599,5.4835,5.4841,5.4847,5.4904,5.4916,5.4927,0,0,0,0,0,5.4279,5.4359,5.4349,5.4366,5.4455,5.4526,5.4537,5.4538,5.4504,5.4543,5.4557,5.4536,5.4671,5.463,5.4646,5.4697,5.4832,5.4839,5.4847,5.4899,5.4914,5.4927,0,0,0,0,0,0,5.4324,5.4364,5.4353,5.4449,5.4485,5.452,5.4568,5.4554,5.4599,5.4592,5.4589,5.4597,5.468,5.4696,5.465,5.4793,5.4746,5.4757,5.4779,5.4794,5.4806,5.48,5.4604,0,0,0,0,0,5.4345,5.4402,5.4433,5.4515,5.4534,5.4548,5.4579,5.4577,5.4612,5.4626,5.4647,5.4681,5.473,5.4763,5.481,5.4906,5.4913,5.4949,5.496,5.497,5.4979,5.5029,5.5045,5.4875,5.4875,5.4875,0,0,5.4389,5.4419,5.4454,5.4525,5.4552,5.4608,5.4561,5.4623,5.4664,5.4635,5.4712,5.4728,5.4765,5.4853,5.4892,5.4869,5.5028,5.4979,5.4987,5.4991,5.5038,5.5054,5.5069,5.488,5.4879,5.4878,0,0,5.4499,5.4528,5.4599,5.4627,5.4669,5.4678,5.4695,5.4732,5.4743,5.482,5.4799,5.4847,5.4933,5.496,5.4985,5.5103,5.5084,5.5118,5.518,5.5228,5.5242,5.5253,5.5294,5.5309,5.5128,5.5128,5.5128,0,5.4548,5.4635,5.4636,5.47,5.473,5.4709,5.4779,5.4806,5.486,5.4881,5.4854,5.4962,5.4985,5.5078,5.5107,5.5128,5.5146,5.5114,5.524,5.5252,5.5263,5.5302,5.5317,5.5132,5.5131,5.5131,5.5131,0,5.4692,5.4752,5.4804,5.486,5.4896,5.4962,5.4971,5.5007,5.5001,5.5012,5.509,5.5117,5.5169,5.5191,5.5185,5.5282,5.5266,5.524,5.5192,5.5283,5.5319,5.5335,5.5137,5.5136,5.5135,5.5134,0,0,5.4833,5.4888,5.4907,5.4931,5.4976,5.5021,5.5085,5.5138,5.5168,5.5206,5.5259,5.5332,5.5308,5.5336,5.5332,5.5375,5.5466,5.5344,5.5344,5.5364,5.5573,5.5592,5.5609,5.5453,5.5456,5.5459,5.5569,0,5.4945,5.5061,5.5063,5.5168,5.5222,5.5202,5.5257,5.5289,5.5301,5.5346,5.5358,5.541,5.5375,5.5391,5.5433,5.5446,5.5507,5.5438,5.55,5.5502,5.5491,5.5629,5.5649,5.5753,5.5584,5.5586,5.5588,0,5.5092,5.5136,5.5247,5.5283,5.5306,5.5356,5.5404,5.5449,5.5483,5.5488,5.552,5.551,5.5572,5.5523,5.5608,5.5561,5.5586,5.5596,5.56,5.5606,5.555,5.5637,5.5786,5.5801,5.5611,5.5609,5.5607,0,5.5182,5.5269,5.5347,5.5368,5.5412,5.5448,5.5467,5.55,5.553,5.5571,5.5591,5.5637,5.5663,5.5698,5.57,5.5664,5.5785,5.5736,5.5789,5.5789,5.5815,5.5814,5.597,5.5833,5.5833,5.5832,5.5832,0,5.5307,5.5375,5.5388,5.5436,5.5511,5.5511,5.5585,5.5601,5.5629,5.5678,5.5662,5.5707,5.5707,5.5752,5.5754,5.5823,5.5835,5.5839,5.5838,5.584,5.584,5.5856,5.5849,5.5836,5.5836,5.5835,5.5834,0,5.542,5.5432,5.5515,5.555,5.556,5.5614,5.5643,5.5686,5.5696,5.5757,5.5772,5.5786,5.5839,5.5844,5.5905,5.5905,5.5989,5.5981,5.5978,5.5976,5.6029,5.6024,5.6201,5.6223,5.6072,5.6074,5.6075,0,5.5499,5.5551,5.5592,5.5625,5.5647,5.5699,5.5731,5.5733,5.5766,5.5809,5.5847,5.5898,5.5939,5.6023,5.6038,5.6083,5.6076,5.6135,5.6082,5.6082,5.6075,5.6072,5.6076,5.6145,5.6146,5.6148,5.6149,0,5.5637,5.564,5.5688,5.5738,5.5777,5.5815,5.5851,5.5878,5.5884,5.5922,5.5976,5.6008,5.607,5.612,5.6165,5.6182,5.6166,5.6165,5.618,5.6182,5.6178,5.6179,5.6005,5.6161,5.616,5.6159,5.6158,5.6158,5.5735,5.578,5.5816,5.5869,5.5897,5.5931,5.5974,5.5989,5.6036,5.6088,5.6085,5.6145,5.6176,5.6234,5.6255,5.63,5.628,5.6301,5.6306,5.6311,5.6316,5.6171,5.6308,5.6307,5.6307,5.6307,5.6306,0,5.5871,5.5893,5.5942,5.5994,5.6036,5.6019,5.6057,5.6092,5.6146,5.6177,5.6218,5.628,5.6328,5.6346,5.6393,5.6425,5.6419,5.6437,5.6434,5.6438,5.6332,5.6314,5.6442,5.6442,5.6442,5.6442,5.6441,5.6441,5.5947,5.6022,5.6029,5.6117,5.6138,5.6198,5.6221,5.6251,5.6277,5.6347,5.6388,5.64,5.6425,5.6473,5.6516,5.652,5.6537,5.6559,5.6559,5.646,5.6446,5.6433,5.6416,5.6563,5.6563,5.6662,5.6663,5.6664]}]]